Palacios, TX

11:18 PM CST on February 23, 2017 (GMT -0600)
Palacios Municipal

Weather History for KPSX - May, 2013

Change the Weather History Date:

Tuesday, May 28, 2013

  Actual Average Record
Temperature  
Mean Temperature 83 °F -  
Max Temperature 88 °F 85 °F 90 °F (1958)
Min Temperature 78 °F 71 °F 56 °F (1961)
Cooling Degree Days 18    
Growing Degree Days 33 (Base 50)    
Moisture  
Dew Point 71 °F    
Average Humidity 70    
Maximum Humidity 79    
Minimum Humidity 59    
Precipitation  
Precipitation 0.00 in - - ()
Sea Level Pressure  
Sea Level Pressure 29.89 in    
Wind  
Wind Speed 19 mph (SSE)    
Max Wind Speed 24 mph    
Max Gust Speed 32 mph    
Visibility 10 miles    
Events      
Averages and records for this station are not official NWS values.
T = Trace of Precipitation, MM = Missing Value Source: NWS Daily Summary

Daily Weather History Graph

Daily Weather History Graph

Search for Another Location

Airport or City:

Trip Planner

Search our weather history database for the weather conditions in past years. The results will help you decide how hot, cold, wet, or windy it might be!

Date:

Astronomy

May. 28, 2013 Rise Set
Actual Time 6:28 AM CDT 8:16 PM CDT
Civil Twilight 6:01 AM CDT 8:43 PM CDT
Nautical Twilight 5:29 AM CDT 9:15 PM CDT
Astronomical Twilight 4:56 AM CDT 9:48 PM CDT
Moon 11:51 PM CDT (5/28) 10:10 AM CDT (5/28)
Length of Visible Light 14h 41m
Length of Day
13h 48m
Waning Gibbous, 82% of the Moon is Illuminated
May 28
Waning Gibbous
May 31
Last Quarter
Jun 8
New
Jun 16
First Quarter
Jun 23
Full

Hourly Weather History & Observations

Time (CDT) Temp. Heat Index Dew Point Humidity Pressure Visibility Wind Dir Wind Speed Gust Speed Precip Events Conditions
12:53 AM 80.1 °F 83.6 °F 71.1 °F 74% 29.95 in 10.0 mi SSE 16.1 mph 24.2 mph N/A   Clear
1:53 AM 80.1 °F 83.2 °F 70.0 °F 71% 29.94 in 10.0 mi SSE 18.4 mph 26.5 mph N/A   Partly Cloudy
2:53 AM 80.1 °F 83.2 °F 70.0 °F 71% 29.92 in 10.0 mi SSE 19.6 mph - N/A   Partly Cloudy
3:31 AM 80.6 °F 84.6 °F 71.6 °F 74% 29.90 in 10.0 mi SSE 17.3 mph - N/A   Mostly Cloudy
3:53 AM 80.1 °F 83.8 °F 72.0 °F 76% 29.90 in 10.0 mi SSE 18.4 mph 23.0 mph N/A   Overcast
4:53 AM 79.0 °F - 72.0 °F 79% 29.88 in 10.0 mi SSE 20.7 mph 26.5 mph N/A   Mostly Cloudy
5:33 AM 78.8 °F - 71.6 °F 78% 29.89 in 10.0 mi SSE 18.4 mph 24.2 mph N/A   Scattered Clouds
5:53 AM 80.1 °F 83.2 °F 70.0 °F 71% 29.88 in 10.0 mi SSE 17.3 mph 25.3 mph N/A   Partly Cloudy
6:53 AM 80.1 °F 83.2 °F 70.0 °F 71% 29.89 in 10.0 mi South 18.4 mph 27.6 mph N/A   Clear
7:53 AM 81.0 °F 84.9 °F 71.1 °F 72% 29.90 in 10.0 mi SSE 15.0 mph 21.9 mph N/A   Clear
8:53 AM 82.0 °F 86.7 °F 72.0 °F 71% 29.91 in 10.0 mi SSE 17.3 mph 24.2 mph N/A   Overcast
9:36 AM 82.4 °F 87.2 °F 71.6 °F 70% 29.92 in 10.0 mi SSE 18.4 mph 24.2 mph N/A   Overcast
9:53 AM 84.0 °F 90.2 °F 73.0 °F 69% 29.92 in 10.0 mi SSE 15.0 mph - N/A   Overcast
10:53 AM 84.9 °F 90.7 °F 72.0 °F 65% 29.91 in 10.0 mi SSE 18.4 mph 24.2 mph N/A   Overcast
11:53 AM 84.9 °F 90.7 °F 72.0 °F 65% 29.92 in 10.0 mi SSE 19.6 mph 25.3 mph N/A   Mostly Cloudy
12:37 PM 84.2 °F 89.6 °F 71.6 °F 66% 29.92 in 10.0 mi SSE 18.4 mph 27.6 mph N/A   Mostly Cloudy
12:53 PM 86.0 °F 92.2 °F 72.0 °F 63% 29.92 in 10.0 mi SSE 21.9 mph 27.6 mph N/A   Mostly Cloudy
1:53 PM 86.0 °F 92.2 °F 72.0 °F 63% 29.91 in 10.0 mi SSE 20.7 mph 25.3 mph N/A   Mostly Cloudy
2:53 PM 88.0 °F 94.7 °F 72.0 °F 59% 29.90 in 10.0 mi South 19.6 mph - N/A   Mostly Cloudy
3:53 PM 87.1 °F 93.6 °F 72.0 °F 61% 29.88 in 10.0 mi SSE 19.6 mph 26.5 mph N/A   Mostly Cloudy
4:53 PM 84.9 °F 90.1 °F 71.1 °F 63% 29.87 in 10.0 mi SSE 23.0 mph 32.2 mph N/A   Mostly Cloudy
5:41 PM 84.2 °F 89.6 °F 71.6 °F 66% 29.86 in 10.0 mi SE 24.2 mph 28.8 mph N/A   Mostly Cloudy
5:53 PM 86.0 °F 92.2 °F 72.0 °F 63% 29.86 in 10.0 mi SE 21.9 mph 28.8 mph N/A   Mostly Cloudy
6:35 PM 84.2 °F 89.6 °F 71.6 °F 66% 29.85 in 10.0 mi SSE 18.4 mph 27.6 mph N/A   Mostly Cloudy
6:53 PM 84.0 °F 89.0 °F 71.1 °F 65% 29.85 in 10.0 mi SSE 23.0 mph 29.9 mph N/A   Mostly Cloudy
7:02 PM 82.4 °F 87.2 °F 71.6 °F 70% 29.85 in 10.0 mi SSE 23.0 mph 28.8 mph N/A   Scattered Clouds
7:15 PM 82.4 °F 87.2 °F 71.6 °F 70% 29.85 in 10.0 mi SSE 20.7 mph 29.9 mph N/A   Mostly Cloudy
7:53 PM 81.0 °F 84.9 °F 71.1 °F 72% 29.85 in 10.0 mi SE 20.7 mph 27.6 mph N/A   Mostly Cloudy
8:19 PM 80.6 °F 84.6 °F 71.6 °F 74% 29.86 in 10.0 mi SE 20.7 mph 26.5 mph N/A   Scattered Clouds
8:53 PM 81.0 °F 85.2 °F 72.0 °F 74% 29.85 in 10.0 mi SE 19.6 mph 25.3 mph N/A   Scattered Clouds
9:53 PM 80.1 °F 83.8 °F 72.0 °F 76% 29.86 in 10.0 mi SE 18.4 mph - N/A   Scattered Clouds
10:53 PM 80.1 °F 83.6 °F 71.1 °F 74% 29.87 in 10.0 mi SE 15.0 mph - N/A   Scattered Clouds
11:04 PM 80.6 °F 84.6 °F 71.6 °F 74% 29.87 in 10.0 mi SE 19.6 mph 26.5 mph N/A   Mostly Cloudy
11:53 PM 80.1 °F 83.6 °F 71.1 °F 74% 29.87 in 10.0 mi SE 18.4 mph 27.6 mph N/A   Mostly Cloudy